ROMMA est une association bénévole à but non lucratif. Votre soutien est indispensable : ADHERER à ROMMA ou FAIRE un DON

Challes-les-Eaux - (73, Savoie)

Trouée des Marches (325 m)   Longitude: 05° 58' E   Latitude: 45° 32' N Station romma n°148
 

Détail journalier du     <<     >>

Température Precipitation Humidité Pression Vent Dir Rafale Dir. rafale
Heure (°C) (mm) (%) (hPa) (km/h) (km/h)
01:00 13.60.89310141SO11SE
02:00 13.71.49410141SE10S
03:00 13.31.49310143ESE18SE
04:00 12.809210134ESE15E
05:00 12.309310112ESE8SO
06:00 12.509210113ESE16ESE
07:00 11.70.29210113SSO16SE
08:00 11.009310121ESE5ESE
09:00 10.409410131ESE6SSO
10:00 12.509310131ENE6SO
11:00 14.308810141ESE5SE
12:00 16.707710152NNO6NO
13:00 17.107710154NNO15N
14:00 16.108110155NNO15NO
15:00 16.608110144N15NNE
16:00 16.008310152ONO11NO
17:00 15.808310152ONO6NO
18:00 15.708510151NNE5NNE
19:00 14.7087101603NNO
20:00 14.1090101703NNO
21:00 13.909110171OSO5NNE
22:00 12.809210181OSO5OSO
23:00 11.709310191OSO5OSO
minuit 11.2093102003OSO

Graphique du 24-10-2019

 

Serveur OMMA